Etusivu
METAR-TAF:

METAR-TAF

Lentoasemat :

Lake Charles, Louisiana, Yhdysvallat

Leveyspiiri: 30-13N, Pituuspiiri: 093-09W, korkeus merenpinnasta: 4 m

Tämänhetkinen sää

Tämä raportti tehtiin 46 minuuttia sitten, kello 17.53 UTC
Tuuli 16 kn pohjoisesta puuskistuen 23 kn:hen
Lämpötila 7°C
Kosteus 49%
Ilmanpaine 1029 hPa
Näkyvyys: 16.1 km
selkeää

METAR: KCWF 121753Z 36016G23KT 10SM SKC 07/M03 A3040

Aika: 12:39 (18:39 UTC)


TAF: puuttuu

Säähavainnot ja -ennusteet yli 4000 lentoasemalta (METAR- ja TAF-raportit).

Käytössä olevat sääasemat on merkitty karttaan keltaisilla ja punaisilla pisteillä.

Aseta hiiri pisteen päälle nähdäksesi sääaseman nimen.

Klikkaa sitten nähdäksesi säähavainnot ja -ennusteet.

Kartan vaihtaminen: klikkaa mustalla rastilla varustettuja vihreitä pisteitä, niin voit zoomata sisään; viivalla varustettua vihreää pistettä, niin voit zoomata ulos tai vihreitä nuolia, niin pääset viereisille kartoille.


METAR-TAF: